• In United Kingdom
  • List of Countries
  • For 7 days
  • Water Temperature
  • Satellite Maps
  • Weather Map
  • Weather Widgets
  • user-avatar
    Login

    Hourly Weather Townsville

    Today, 21 August, Monday

    Time Temperature Precipitation Wind Pressure Humidity
    00:00 +15°C° 0 mm 4 mps 756 mmHg 80%
    01:00 +14°C° 0 mm 4 mps 757 mmHg 80%
    02:00 +14°C° 0 mm 4 mps 756 mmHg 77%
    03:00 +14°C° 0 mm 4 mps 756 mmHg 74%
    04:00 +13°C° 0 mm 4 mps 756 mmHg 70%
    05:00 +13°C° 0 mm 4 mps 756 mmHg 68%
    06:00 +13°C° 0 mm 4 mps 757 mmHg 66%
    07:00 +13°C° 0 mm 3 mps 757 mmHg 63%
    08:00 +17°C° 0 mm 4 mps 757 mmHg 57%
    09:00 +20°C° 0 mm 4 mps 757 mmHg 51%
    10:00 +23°C° 0 mm 4 mps 757 mmHg 45%
    11:00 +25°C° 0 mm 4 mps 757 mmHg 44%
    12:00 +26°C° 0 mm 4 mps 756 mmHg 44%
    13:00 +27°C° 0 mm 4 mps 756 mmHg 43%
    14:00 +27°C° 0 mm 4 mps 756 mmHg 46%
    15:00 +26°C° 0 mm 3 mps 755 mmHg 49%
    16:00 +26°C° 0 mm 3 mps 755 mmHg 52%
    17:00 +24°C° 0 mm 3 mps 755 mmHg 61%
    18:00 +21°C° 0 mm 2 mps 756 mmHg 71%
    19:00 +19°C° 0 mm 2 mps 756 mmHg 80%
    20:00 +19°C° 0 mm 2 mps 756 mmHg 83%
    21:00 +18°C° 0 mm 2 mps 757 mmHg 87%
    22:00 +18°C° 0 mm 2 mps 757 mmHg 91%
    23:00 +18°C° 0 mm 2 mps 757 mmHg 92%

    Tomorrow, 22 August, Tuesday

    Time Temperature Precipitation Wind Pressure Humidity
    00:00 +18°C° 0 mm 2 mps 757 mmHg 93%
    01:00 +18°C° 0 mm 2 mps 757 mmHg 94%
    02:00 +18°C° 0 mm 2 mps 756 mmHg 94%
    03:00 +18°C° 0 mm 2 mps 756 mmHg 93%
    04:00 +18°C° 0 mm 2 mps 756 mmHg 92%
    05:00 +18°C° 0 mm 2 mps 756 mmHg 92%
    06:00 +18°C° 0 mm 2 mps 757 mmHg 92%
    07:00 +19°C° 0 mm 1 mps 757 mmHg 91%
    08:00 +21°C° 0 mm 2 mps 757 mmHg 79%
    09:00 +24°C° 0 mm 2 mps 757 mmHg 67%
    10:00 +27°C° 0 mm 2 mps 757 mmHg 55%
    11:00 +28°C° 0 mm 2 mps 757 mmHg 52%
    12:00 +29°C° 0 mm 3 mps 756 mmHg 48%
    13:00 +30°C° 0 mm 3 mps 755 mmHg 44%
    14:00 +29°C° 0 mm 3 mps 755 mmHg 48%
    15:00 +29°C° 0 mm 3 mps 755 mmHg 51%
    16:00 +28°C° 0 mm 3 mps 755 mmHg 54%
    17:00 +26°C° 0 mm 3 mps 755 mmHg 63%
    18:00 +24°C° 0 mm 3 mps 756 mmHg 73%
    19:00 +21°C° 0 mm 3 mps 756 mmHg 83%
    20:00 +21°C° 0 mm 3 mps 757 mmHg 86%
    21:00 +20°C° 0 mm 3 mps 757 mmHg 89%
    22:00 +20°C° 0 mm 3 mps 757 mmHg 92%
    23:00 +20°C° 0 mm 3 mps 757 mmHg 93%

    Day after tomorrow, 23 August, Wednesday

    Time Temperature Precipitation Wind Pressure Humidity
    00:00 +20°C° 0 mm 3 mps 757 mmHg 93%
    01:00 +20°C° 0 mm 3 mps 757 mmHg 94%
    02:00 +20°C° 0 mm 3 mps 757 mmHg 93%
    03:00 +20°C° 0 mm 3 mps 756 mmHg 92%
    04:00 +20°C° 0 mm 3 mps 756 mmHg 91%
    05:00 +20°C° 0 mm 2 mps 757 mmHg 90%
    06:00 +20°C° 0 mm 2 mps 757 mmHg 89%
    07:00 +20°C° 0 mm 2 mps 758 mmHg 88%
    08:00 +23°C° 0 mm 2 mps 758 mmHg 78%
    09:00 +25°C° 0 mm 3 mps 758 mmHg 68%
    10:00 +27°C° 0 mm 3 mps 758 mmHg 58%
    11:00 +28°C° 0 mm 3 mps 757 mmHg 53%
    12:00 +29°C° 0 mm 3 mps 756 mmHg 48%
    13:00 +30°C° 0 mm 3 mps 756 mmHg 44%
    14:00 +30°C° 0 mm 3 mps 755 mmHg 46%
    15:00 +29°C° 0 mm 3 mps 755 mmHg 47%
    16:00 +28°C° 0 mm 3 mps 755 mmHg 49%
    17:00 +26°C° 0 mm 3 mps 755 mmHg 59%
    18:00 +24°C° 0 mm 2 mps 756 mmHg 69%
    19:00 +21°C° 0 mm 2 mps 756 mmHg 79%
    20:00 +21°C° 0 mm 2 mps 756 mmHg 83%
    21:00 +20°C° 0 mm 2 mps 757 mmHg 86%
    22:00 +20°C° 0 mm 2 mps 757 mmHg 89%
    23:00 +20°C° 0 mm 2 mps 756 mmHg 91%

    24 August, Thursday

    Time Temperature Precipitation Wind Pressure Humidity
    00:00 +19°C° 0 mm 2 mps 756 mmHg 92%
    01:00 +19°C° 0 mm 2 mps 756 mmHg 94%
    02:00 +19°C° 0 mm 2 mps 756 mmHg 94%
    03:00 +19°C° 0 mm 2 mps 755 mmHg 95%
    04:00 +19°C° 0 mm 2 mps 755 mmHg 95%
    05:00 +19°C° 0 mm 2 mps 755 mmHg 95%
    06:00 +19°C° 0 mm 2 mps 756 mmHg 94%
    07:00 +19°C° 0 mm 2 mps 756 mmHg 94%
    08:00 +23°C° 0 mm 2 mps 756 mmHg 81%
    09:00 +25°C° 0 mm 2 mps 756 mmHg 68%
    10:00 +27°C° 0 mm 2 mps 757 mmHg 55%
    11:00 +29°C° 0 mm 2 mps 756 mmHg 50%
    12:00 +30°C° 0 mm 2 mps 755 mmHg 45%
    13:00 +31°C° 0 mm 2 mps 754 mmHg 40%
    14:00 +30°C° 0 mm 3 mps 754 mmHg 42%
    15:00 +30°C° 0 mm 3 mps 754 mmHg 44%
    16:00 +29°C° 0 mm 3 mps 753 mmHg 46%
    17:00 +27°C° 0 mm 3 mps 754 mmHg 57%
    18:00 +25°C° 0 mm 2 mps 754 mmHg 67%
    19:00 +21°C° 0 mm 2 mps 754 mmHg 78%
    20:00 +21°C° 0 mm 2 mps 755 mmHg 80%
    21:00 +21°C° 0 mm 2 mps 755 mmHg 83%
    22:00 +20°C° 0 mm 2 mps 755 mmHg 85%
    23:00 +21°C° 0 mm 1 mps 755 mmHg 87%

    25 August, Friday

    Time Temperature Precipitation Wind Pressure Humidity
    00:00 +20°C° 0 mm 1 mps 755 mmHg 89%
    01:00 +20°C° 0 mm 1 mps 755 mmHg 92%
    02:00 +20°C° 0 mm 1 mps 754 mmHg 92%
    03:00 +20°C° 0 mm 1 mps 754 mmHg 92%
    04:00 +19°C° 0 mm 1 mps 754 mmHg 92%
    05:00 +20°C° 0 mm 1 mps 755 mmHg 92%
    06:00 +19°C° 0 mm 2 mps 755 mmHg 91%
    07:00 +19°C° 0 mm 2 mps 756 mmHg 91%
    08:00 +23°C° 0 mm 2 mps 756 mmHg 78%
    09:00 +25°C° 0 mm 2 mps 756 mmHg 66%
    10:00 +28°C° 0 mm 3 mps 756 mmHg 53%
    11:00 +29°C° 0 mm 3 mps 756 mmHg 50%
    12:00 +30°C° 0 mm 4 mps 755 mmHg 47%
    13:00 +30°C° 0 mm 4 mps 754 mmHg 44%
    14:00 +29°C° 0 mm 4 mps 754 mmHg 49%
    15:00 +28°C° 0 mm 5 mps 754 mmHg 55%
    16:00 +27°C° 0 mm 5 mps 754 mmHg 61%
    17:00 +25°C° 0.1 mm 5 mps 754 mmHg 70%
    18:00 +23°C° 0.1 mm 5 mps 755 mmHg 79%
    19:00 +21°C° 0.1 mm 5 mps 755 mmHg 89%
    20:00 +21°C° 0 mm 5 mps 756 mmHg 90%
    21:00 +20°C° 0 mm 5 mps 756 mmHg 92%
    22:00 +20°C° 0 mm 4 mps 756 mmHg 94%
    23:00 +20°C° 0 mm 4 mps 756 mmHg 94%

    26 August, Saturday

    Time Temperature Precipitation Wind Pressure Humidity
    00:00 +19°C° 0 mm 4 mps 756 mmHg 95%
    01:00 +19°C° 0 mm 4 mps 756 mmHg 95%
    02:00 +19°C° 0 mm 4 mps 756 mmHg 96%
    03:00 +18°C° 0 mm 4 mps 756 mmHg 96%
    04:00 +18°C° 0 mm 4 mps 756 mmHg 96%
    05:00 +18°C° 0 mm 4 mps 756 mmHg 95%
    06:00 +17°C° 0 mm 5 mps 756 mmHg 95%
    07:00 +16°C° 0 mm 5 mps 757 mmHg 94%
    08:00 +20°C° 0 mm 5 mps 757 mmHg 82%
    09:00 +23°C° 0 mm 6 mps 757 mmHg 70%
    10:00 +26°C° 0 mm 6 mps 757 mmHg 58%
    11:00 +27°C° 0 mm 6 mps 757 mmHg 54%
    12:00 +28°C° 0 mm 7 mps 756 mmHg 50%
    13:00 +29°C° 0 mm 7 mps 755 mmHg 45%
    14:00 +28°C° 0 mm 7 mps 755 mmHg 48%
    15:00 +27°C° 0 mm 7 mps 755 mmHg 51%
    16:00 +26°C° 0 mm 7 mps 755 mmHg 55%
    17:00 +24°C° 0 mm 6 mps 755 mmHg 60%
    18:00 +23°C° 0 mm 6 mps 756 mmHg 66%
    19:00 +21°C° 0 mm 6 mps 756 mmHg 72%
    20:00 +21°C° 0 mm 6 mps 757 mmHg 75%
    21:00 +20°C° 0 mm 5 mps 757 mmHg 78%
    22:00 +20°C° 0 mm 5 mps 757 mmHg 80%
    23:00 +19°C° 0 mm 5 mps 757 mmHg 84%
    Show more